Regional Weather Roundup
Issued by NWS

Home | Current Version | Previous Version | Graphics & Text | Print | Product List | Glossary Off
Versions: 1 2 3 4 5 6 7 8 9 10 11 12 13 14 15 16 17 18 19 20 21 22 23 24 25 26 27 28 29 30 31 32 33 34 35 36 37 38 39 40 41 42 43 44 45 46 47 48 49 50

000
ASUS43 KTOP 241759
RWRKS

WEATHER ROUNDUP FOR KANSAS
NATIONAL WEATHER SERVICE GOODLAND KS
100 PM CDT TUE APR 24 2018

NOTE:  "FAIR" INDICATES FEW OR NO CLOUDS BELOW 12,000 FEET WITH NO
SIGNIFICANT WEATHER AND/OR OBSTRUCTIONS TO VISIBILITY.

KSZ001>006-013>018-027>032-041>047-241900-
NORTHWEST KANSAS

CITY           SKY/WX    TMP DP  RH WIND       PRES   REMARKS
GOODLAND       CLOUDY    37  35  92 N18G29    30.35S WCI  27
6HR MIN TEMP:  34; 6HR MAX TEMP:  39; 6HR PCP:  0.25;

HAYS           RAIN      46  43  89 NW20G29   30.27R
HILL CITY      LGT RAIN  44  43  96 NW15G29   30.31R FOG
6HR MIN TEMP:  44; 6HR MAX TEMP:  54; 6HR PCP:  0.13;

RUSSELL        CLOUDY    50  46  86 N21G35    30.23S
6HR MIN TEMP:  43; 6HR MAX TEMP:  60; 6HR PCP: TRACE;

$$

KSZ061>065-074>080-084>089-241900-
SOUTHWEST KANSAS

CITY           SKY/WX    TMP DP  RH WIND       PRES   REMARKS
DODGE CITY     CLOUDY    49  41  74 N22G33    30.26S
6HR MIN TEMP:  48; 6HR MAX TEMP:  56; 6HR PCP: TRACE;

GARDEN CITY    CLOUDY    43  39  86 N29G36    30.29S
6HR MIN TEMP:  43; 6HR MAX TEMP:  50; 6HR PCP:  0.03;

GREAT BEND     CLOUDY    52  46  80 NW23      30.23R
LIBERAL        CLOUDY    50  40  68 N25       30.26S
$$

KSZ066>073-081>083-090>101-241900-
SOUTHEAST KANSAS

CITY           SKY/WX    TMP DP  RH WIND       PRES   REMARKS
CHANUTE        SUNNY     76  32  20 N10G30    30.11F
6HR MIN TEMP:  41; 6HR MAX TEMP:  77;

COFFEYVILLE    SUNNY     75  38  26 NW7       30.10F
6HR MIN TEMP:  44; 6HR MAX TEMP:  76;

HUTCHINSON     MOSUNNY   74  46  36 W14G21    30.15S
6HR MIN TEMP:  45; 6HR MAX TEMP:  74;

MEDICINE LODGE   N/A     74  41  30 NW8       30.14F
NEWTON         CLOUDY    72  40  31 NW10      30.13F
PARSONS        SUNNY     75  36  24 NW7       30.11F
6HR MIN TEMP:  41; 6HR MAX TEMP:  76;

WICHITA INTL   CLOUDY    74  37  26 W5        30.12F
6HR MIN TEMP:  48; 6HR MAX TEMP:  76;

WICHITA JABRA  SUNNY     77  36  22 MISG      30.12F
6HR MIN TEMP:  45; 6HR MAX TEMP:  77;

WICHITA MCCONL MOSUNNY   75  35  23 NW8       30.11F
WINFIELD       MOSUNNY   75  41  29 NW9       30.12F
6HR MIN TEMP:  44; 6HR MAX TEMP:  76;

$$

KSZ007>012-019>026-033>040-048>060-102>105-241900-
NORTHEAST KANSAS

CITY           SKY/WX    TMP DP  RH WIND       PRES   REMARKS
CONCORDIA      CLOUDY    62  47  57 NW20G33   30.17S
6HR MIN TEMP:  43; 6HR MAX TEMP:  68;

EMPORIA        SUNNY     73  35  25 NE6       30.11F
6HR MIN TEMP:  45; 6HR MAX TEMP:  74;

LAWRENCE       MOSUNNY   76  31  19 NE13      30.10F
6HR MIN TEMP:  38; 6HR MAX TEMP:  77;

MANHATTAN      MOSUNNY   77  33  20 VRB3      30.11F
6HR MIN TEMP:  39; 6HR MAX TEMP:  77;

OLATHE IND     SUNNY     72  34  24 N9        30.11F
6HR MIN TEMP:  44; 6HR MAX TEMP:  75;

OLATHE EXE     SUNNY     73  34  23 NE8       30.10F
6HR MIN TEMP:  50; 6HR MAX TEMP:  73;

SALINA         CLOUDY    73  42  32 NW13      30.14F
6HR MIN TEMP:  41; 6HR MAX TEMP:  73;

TOPEKA BILLARD SUNNY     76  35  22 NE12      30.10F
6HR MIN TEMP:  41; 6HR MAX TEMP:  77;

TOPEKA FORBES  SUNNY     75  32  20 MISG      30.11F
6HR MIN TEMP:  41; 6HR MAX TEMP:  75;

$$



USA.gov is the U.S. government's official web portal to all federal, state and local government web resources and services.